Date,TemperatureHighF,TemperatureAvgF,TemperatureLowF,DewpointHighF,DewpointAvgF,DewpointLowF,HumidityHigh,HumidityAvg,HumidityLow,PressureMaxIn,PressureMinIn,WindSpeedMaxMPH,WindSpeedAvgMPH,GustSpeedMaxMPH,PrecipitationSumIn
2013-1-1,68.8,60.5,50.3,67.0,57.0,45.0,95,88,78,30.15,29.83,23,10,23,0.06
2013-1-2,50.4,44.3,41.7,45.4,40.1,37.9,92,85,78,30.28,30.13,17,10,17,0.40
2013-1-3,48.7,45.6,43.1,39.4,37.8,36.1,83,74,62,30.36,30.25,18,10,18,0.00
2013-1-4,49.2,47.6,44.9,43.2,40.5,38.7,93,77,71,30.39,30.30,20,12,20,0.01
2013-1-5,48.9,46.8,44.9,46.0,42.7,39.2,94,86,72,30.32,30.22,20,10,20,0.03
2013-1-6,56.9,50.3,46.4,47.8,45.4,43.1,91,84,66,30.33,30.24,15,7,15,0.00
2013-1-7,57.9,53.4,46.6,57.0,50.6,42.8,97,90,77,30.28,29.96,20,8,20,0.03
2013-1-8,66.7,62.6,57.2,66.0,61.6,56.5,98,97,94,29.96,29.75,31,9,31,0.24
2013-1-9,68.5,62.1,58.6,67.2,60.6,57.2,97,95,92,30.02,29.75,33,7,33,1.06
2013-1-10,60.8,58.0,53.7,57.9,53.5,48.2,96,85,65,30.10,30.01,15,6,15,0.00
2013-1-11,70.3,63.5,56.3,67.4,62.1,55.1,98,95,90,30.03,29.79,14,5,14,0.01
2013-1-12,69.4,66.9,64.9,68.1,66.1,64.3,99,97,94,29.82,29.63,18,10,18,0.01
2013-1-13,67.7,54.5,47.4,67.1,47.6,40.5,98,78,58,30.07,29.67,30,13,30,0.01
2013-1-14,50.7,45.9,43.1,44.8,41.4,38.0,94,85,70,30.16,30.03,18,10,18,0.00
2013-1-15,46.4,44.0,41.8,45.0,41.7,37.3,96,92,84,30.20,30.00,22,13,22,0.10
2013-1-16,55.9,46.8,40.0,37.9,30.9,20.5,83,56,26,30.35,30.19,25,13,25,0.00
2013-1-17,60.2,50.1,41.8,46.8,38.2,28.5,89,65,45,30.43,30.29,14,5,14,0.00
2013-1-18,58.7,53.0,47.2,51.5,48.6,44.0,94,86,71,30.47,30.30,15,4,15,0.00
2013-1-19,67.8,59.2,51.9,55.8,52.8,50.2,95,80,57,30.30,30.14,10,3,12,0.01
2013-1-20,66.6,59.6,53.0,58.0,55.1,51.6,96,85,72,30.22,30.08,13,5,13,0.00
2013-1-21,65.2,60.0,55.8,59.4,56.3,53.9,95,88,78,30.21,30.08,12,4,12,0.00
2013-1-22,67.3,60.9,55.7,58.9,56.4,53.3,94,85,67,30.27,30.14,13,4,13,0.00
2013-1-23,70.6,64.0,58.2,65.5,61.1,56.4,96,90,81,30.31,30.21,13,4,13,0.00
2013-1-24,72.3,64.3,59.5,65.1,61.6,58.3,96,91,77,30.28,30.12,16,6,16,0.01
2013-1-25,71.2,64.5,59.6,64.9,61.9,58.5,97,92,80,30.15,30.03,17,8,17,0.03
2013-1-26,70.6,65.1,61.6,64.8,62.2,60.3,97,91,80,30.13,30.04,15,8,15,0.00
2013-1-27,68.8,65.2,61.9,66.8,63.8,59.9,98,95,92,30.07,29.95,21,10,21,0.01
2013-1-28,71.0,66.9,64.7,67.1,65.3,63.8,97,95,87,30.05,29.90,22,12,22,0.00
2013-1-29,72.3,67.3,64.1,70.1,65.0,50.8,98,93,51,29.90,29.58,31,12,31,0.00
2013-1-30,68.6,61.9,54.1,51.2,33.1,21.7,54,35,19,30.22,29.72,37,17,37,0.00
2013-1-31,66.2,58.2,47.4,52.7,41.6,32.6,81,55,29,30.31,30.19,14,5,14,0.00
2013-2-1,68.5,62.4,57.2,57.1,54.1,51.3,91,75,56,30.32,30.19,15,4,15,0.00
2013-2-2,70.6,64.4,60.6,62.0,59.5,56.8,94,85,69,30.22,30.13,14,5,14,0.00
2013-2-3,65.7,62.5,58.4,61.2,59.8,57.3,97,91,81,30.27,30.01,14,6,14,0.01
2013-2-4,73.1,66.1,63.1,66.2,62.8,59.5,95,89,78,30.01,29.78,17,7,17,0.00
2013-2-5,72.1,66.4,62.1,68.5,64.6,61.0,98,94,85,29.94,29.83,15,5,15,0.00
2013-2-6,69.5,65.7,62.6,69.1,64.6,61.7,99,97,92,29.97,29.79,23,10,23,1.06
2013-2-7,70.0,65.7,63.5,68.0,64.2,62.3,97,95,90,29.97,29.85,12,5,12,0.00
2013-2-8,66.7,62.6,58.4,64.8,57.4,51.9,98,84,60,30.16,29.97,20,10,20,0.01
2013-2-9,69.4,66.4,62.7,67.1,64.3,59.5,97,93,89,30.05,29.78,21,11,21,0.00
2013-2-10,77.6,68.1,63.5,71.0,64.4,56.3,97,88,75,29.89,29.72,20,10,20,0.00
2013-2-11,65.2,62.0,59.0,60.4,59.1,56.5,98,90,80,29.95,29.85,23,15,23,0.00
2013-2-12,66.3,62.1,59.4,61.4,59.7,58.5,98,92,79,29.96,29.79,18,8,18,0.00
2013-2-13,63.2,56.7,51.9,60.1,48.5,41.7,92,74,59,30.15,29.95,20,9,20,0.00
2013-2-14,61.7,58.1,52.1,51.6,47.9,44.8,83,69,56,30.13,30.02,12,6,12,0.00
2013-2-15,65.2,61.7,56.9,56.4,53.2,44.7,83,74,53,30.28,30.03,21,9,21,0.00
2013-2-16,58.9,54.4,48.8,46.6,38.7,29.5,72,56,35,30.45,30.25,20,8,20,0.00
2013-2-17,67.5,61.9,51.4,59.4,52.7,44.7,83,72,62,30.25,29.98,17,8,17,0.00
2013-2-18,71.4,66.5,63.9,65.2,62.4,59.3,94,87,80,29.99,29.83,18,10,18,0.00
2013-2-19,65.4,62.7,60.8,63.6,55.8,49.2,96,78,64,30.18,29.97,26,15,26,0.00
2013-2-20,69.7,66.4,63.6,66.4,63.8,58.3,96,91,83,30.00,29.66,20,12,20,0.00
2013-2-21,77.5,69.7,65.9,70.3,64.9,54.9,96,85,61,29.78,29.58,17,9,17,0.00
2013-2-22,66.9,65.0,61.0,61.1,54.9,49.5,85,70,54,29.90,29.77,26,14,26,0.00
2013-2-23,66.3,59.2,54.2,56.9,51.3,46.1,88,76,61,29.99,29.85,17,9,17,0.00
2013-2-24,67.0,63.4,57.9,65.9,61.1,55.3,98,92,84,29.89,29.58,15,6,15,0.00
2013-2-25,69.5,65.2,57.1,66.7,45.6,24.9,99,57,19,29.86,29.50,45,20,45,0.01
2013-2-26,64.5,56.6,47.1,53.8,39.5,31.3,80,54,33,29.99,29.84,24,9,24,0.00
2013-2-27,71.7,62.7,55.1,58.5,50.5,38.7,92,67,31,30.16,29.85,17,6,17,0.00
2013-2-28,58.3,54.9,50.5,43.9,35.9,29.4,68,50,35,30.28,30.15,20,9,20,0.00
2013-3-1,62.3,57.6,51.1,50.9,40.6,29.7,77,54,30,30.26,30.11,15,6,15,0.00
2013-3-2,63.4,56.7,50.0,51.2,39.0,28.9,83,54,29,30.38,30.21,20,9,20,0.00
2013-3-3,65.8,59.7,48.0,56.1,48.4,38.7,80,67,49,30.26,29.99,20,8,20,0.00
2013-3-4,71.6,66.1,62.0,62.5,60.2,56.0,92,82,70,29.99,29.74,23,12,23,0.00
2013-3-5,68.4,63.4,57.4,62.8,49.9,35.8,94,65,35,30.27,29.78,24,11,24,0.00
2013-3-6,59.4,55.0,49.5,52.0,42.4,33.6,78,63,47,30.39,30.21,17,10,17,0.00
2013-3-7,68.5,64.5,59.4,62.1,59.0,51.8,91,83,75,30.21,30.08,20,10,20,0.00
2013-3-8,70.6,66.9,64.8,66.0,63.9,62.1,93,90,85,30.09,29.99,20,11,20,0.00
2013-3-9,70.9,67.7,66.0,66.4,64.9,63.7,95,91,85,29.99,29.64,22,12,22,0.00
2013-3-10,71.3,66.6,59.3,67.1,56.5,43.7,95,72,40,30.04,29.58,21,11,28,0.03
2013-3-11,69.2,60.8,52.4,52.6,40.3,28.5,71,49,23,30.14,29.98,20,8,20,0.00
2013-3-12,67.8,62.1,54.2,55.4,50.5,44.7,81,66,54,30.20,30.05,15,6,15,0.00
2013-3-13,63.9,62.3,59.4,59.6,56.7,54.1,92,82,73,30.38,30.19,18,9,18,0.00
2013-3-14,70.8,65.8,61.5,61.1,59.2,57.4,89,80,67,30.36,30.24,14,7,14,0.00
2013-3-15,71.5,66.4,62.2,63.1,61.5,58.8,91,84,74,30.25,30.02,20,9,20,0.00
2013-3-16,73.5,67.7,64.6,65.5,63.7,61.6,92,87,75,30.02,29.79,23,10,23,0.00
2013-3-17,73.3,69.0,65.7,68.0,66.1,63.8,96,90,83,29.81,29.64,20,10,20,0.00
2013-3-18,73.7,68.9,65.6,68.3,66.5,64.4,97,92,82,29.85,29.69,17,6,17,0.00
2013-3-19,72.6,68.4,65.6,68.0,66.3,61.5,98,93,83,29.95,29.79,17,9,17,0.00
2013-3-20,68.1,65.9,63.7,66.9,59.8,53.4,97,81,65,30.11,29.85,33,18,33,0.00
2013-3-21,71.6,68.0,64.1,66.2,63.4,58.8,93,85,77,30.00,29.65,15,9,15,0.00
2013-3-22,74.2,69.7,67.9,70.4,67.8,66.2,97,94,88,29.71,29.60,16,9,16,0.00
2013-3-23,74.0,68.6,64.0,70.8,67.0,63.3,98,95,85,29.67,29.56,13,6,13,0.00
2013-3-24,66.6,62.4,55.4,66.0,44.9,28.5,99,59,26,30.10,29.63,29,13,29,0.01
2013-3-25,58.7,54.6,50.3,40.6,35.4,28.9,63,49,36,30.32,30.08,24,14,24,0.00
2013-3-26,59.3,57.7,54.2,42.1,37.7,32.6,58,48,37,30.42,30.31,23,13,23,0.00
2013-3-27,65.2,62.3,58.2,60.1,50.8,40.3,87,66,52,30.30,30.16,21,12,21,0.00
2013-3-28,69.1,66.2,64.1,63.3,61.6,59.0,92,85,81,30.19,30.11,17,9,17,0.00
2013-3-29,71.9,67.6,64.3,65.7,64.0,61.9,93,88,80,30.16,30.04,17,9,17,0.00
2013-3-30,73.8,68.6,65.7,68.7,65.8,63.5,95,91,83,30.07,29.92,18,9,18,0.00
2013-3-31,73.9,69.5,66.9,69.2,67.3,65.4,97,93,85,29.94,29.77,23,10,23,0.00
2013-4-1,70.1,68.4,66.0,68.2,67.0,65.1,98,95,92,30.01,29.90,22,9,22,0.01
2013-4-2,72.9,69.5,67.7,69.8,68.0,66.8,97,95,90,29.94,29.75,18,10,18,0.00
2013-4-3,72.2,65.7,57.1,69.1,61.3,52.7,98,86,72,30.08,29.78,24,12,24,0.00
2013-4-4,71.7,61.1,54.9,53.4,51.2,48.6,88,72,44,30.16,30.02,20,12,20,0.00
2013-4-5,62.8,58.1,51.8,57.6,52.1,46.8,85,80,75,30.25,30.06,16,9,16,0.00
2013-4-6,72.8,67.9,62.7,64.0,62.1,57.6,89,82,73,30.06,29.88,17,11,18,0.00
2013-4-7,73.0,69.7,66.6,66.7,65.4,63.6,91,86,79,29.91,29.79,23,11,23,0.00
2013-4-8,74.4,70.8,68.6,69.7,68.3,66.6,95,92,85,29.81,29.64,25,13,25,0.00
2013-4-9,75.8,72.4,69.5,71.2,69.6,67.7,95,91,85,29.71,29.56,29,14,29,0.00
2013-4-10,77.7,68.3,58.6,72.8,65.1,53.5,96,90,74,29.80,29.59,26,12,26,0.00
2013-4-11,65.0,57.9,49.2,54.8,48.8,44.5,92,73,52,29.94,29.77,26,12,26,0.54
2013-4-12,68.8,65.2,60.6,62.8,59.2,54.3,87,81,76,29.94,29.84,22,9,22,0.00
2013-4-13,71.1,68.6,66.5,65.2,64.1,62.4,92,86,79,29.92,29.71,21,11,21,0.00
2013-4-14,76.9,71.5,67.3,70.6,68.3,65.0,96,90,80,29.76,29.64,20,8,20,0.00
2013-4-15,76.2,72.6,69.5,71.4,70.0,68.0,97,92,83,29.79,29.68,20,11,20,0.00
2013-4-16,74.9,72.5,71.2,72.3,70.7,69.4,98,94,89,29.85,29.73,22,11,22,0.00
2013-4-17,75.6,73.3,71.5,73.3,71.7,70.6,97,95,90,29.85,29.63,24,12,24,0.01
2013-4-18,78.3,68.7,60.2,74.5,64.7,49.2,97,87,66,30.01,29.60,26,13,26,0.01
2013-4-19,63.4,58.8,54.2,49.9,43.0,33.9,70,56,41,30.28,30.01,25,10,25,0.01
2013-4-20,67.5,63.2,54.9,56.6,50.2,42.7,87,63,46,30.19,30.01,17,9,17,0.00
2013-4-21,71.8,68.5,65.6,65.3,61.0,55.7,90,77,67,30.08,29.99,18,10,18,0.00
2013-4-22,74.3,70.2,67.5,68.7,66.5,64.3,93,88,78,30.06,29.90,17,11,17,0.00
2013-4-23,75.9,71.6,68.9,70.9,69.1,67.2,95,92,84,29.92,29.80,20,11,20,0.00
2013-4-24,71.6,58.7,51.7,70.4,54.7,48.9,96,87,73,30.16,29.91,23,12,23,0.01
2013-4-25,68.4,63.9,61.5,67.1,59.1,53.0,96,85,69,30.23,30.11,23,12,23,0.04
2013-4-26,74.8,71.1,68.4,71.3,69.4,67.2,97,94,88,30.14,30.01,18,10,18,0.00
2013-4-27,76.2,72.5,70.1,72.1,70.4,69.0,97,93,86,30.05,29.90,20,10,20,0.00
2013-4-28,74.1,70.9,66.8,70.4,68.8,65.0,97,93,85,29.99,29.81,21,7,21,1.13
2013-4-29,74.4,71.3,68.5,71.8,69.4,65.4,97,94,86,29.91,29.76,20,7,20,0.16
2013-4-30,74.7,71.4,64.5,71.5,68.9,62.2,96,92,86,29.81,29.70,20,9,20,0.39
2013-5-1,76.3,73.1,70.9,72.9,71.4,70.0,98,94,88,29.87,29.72,16,8,16,0.01
2013-5-2,77.4,68.8,55.7,71.2,63.0,47.4,97,82,67,30.23,29.82,29,14,29,0.04
2013-5-3,68.1,59.9,52.9,47.3,39.3,32.6,74,48,28,30.28,30.07,32,17,32,0.00
2013-5-4,72.6,66.5,57.8,56.3,48.1,39.7,70,52,35,30.08,29.88,18,8,18,0.00
2013-5-5,72.2,67.7,62.4,61.6,58.5,55.8,88,73,63,30.06,29.93,17,7,17,0.00
2013-5-6,73.5,69.8,65.5,62.6,60.7,58.6,84,73,62,30.09,29.96,18,6,18,0.00
2013-5-7,74.6,71.1,67.2,67.3,64.1,61.4,87,79,70,30.05,29.93,16,8,16,0.00
2013-5-8,76.1,73.2,70.6,70.4,68.9,67.0,93,87,79,30.00,29.90,20,11,20,0.00
2013-5-9,76.6,74.2,72.4,73.8,72.1,70.3,95,93,90,29.93,29.79,20,10,20,0.00
2013-5-10,74.3,73.4,71.9,73.1,72.1,70.4,97,96,94,29.91,29.79,16,8,16,0.03
2013-5-11,76.3,73.2,70.0,71.4,68.8,65.7,95,86,72,30.05,29.90,20,10,20,0.17
2013-5-12,75.2,71.8,65.9,70.5,65.9,61.9,95,82,67,30.15,30.01,20,10,20,0.70
2013-5-13,74.5,72.0,68.0,68.2,66.0,63.8,90,81,72,30.24,30.11,18,9,18,0.00
2013-5-14,78.8,74.4,72.0,72.5,70.0,66.9,91,86,80,30.20,30.04,23,10,23,0.00
2013-5-15,77.5,74.8,72.8,73.8,72.2,70.9,96,92,87,30.10,29.87,24,12,24,0.59
2013-5-16,79.8,76.1,73.4,75.0,72.9,70.6,94,90,84,29.88,29.73,21,12,21,0.00
2013-5-17,80.9,76.8,73.9,75.4,73.8,72.1,95,91,81,29.88,29.77,20,11,20,0.00
2013-5-18,81.8,77.2,75.1,75.4,74.3,73.2,96,91,80,29.90,29.81,18,11,18,0.00
2013-5-19,81.4,77.6,75.3,76.0,74.4,73.4,95,90,82,29.86,29.73,17,12,17,0.00
2013-5-20,80.8,77.2,75.1,76.0,74.6,73.3,95,92,85,29.82,29.70,18,11,18,0.00
2013-5-21,81.2,77.7,75.4,76.3,75.0,73.9,96,92,84,29.78,29.68,17,11,17,0.00
2013-5-22,80.9,77.9,76.0,77.1,75.9,75.1,97,94,87,29.86,29.75,15,8,15,0.00
2013-5-23,81.7,78.6,76.2,77.8,76.4,75.1,97,93,87,29.97,29.82,16,9,16,0.00
2013-5-24,81.8,79.2,77.6,77.2,76.2,75.3,96,91,83,30.07,29.93,21,11,21,0.00
2013-5-25,81.2,78.7,77.5,77.0,75.8,74.7,94,91,85,30.07,29.98,20,14,20,0.00
2013-5-26,81.6,78.8,76.7,75.0,74.1,73.4,91,86,78,30.06,29.94,20,13,20,0.00
2013-5-27,83.4,79.7,77.1,76.7,75.2,73.6,93,86,78,29.99,29.85,22,14,22,0.00
2013-5-28,83.4,79.8,77.9,77.6,75.8,74.4,92,88,79,29.89,29.77,25,16,25,0.00
2013-5-29,82.3,79.6,78.1,77.5,76.1,74.9,92,89,84,29.83,29.71,28,16,28,0.00
2013-5-30,83.7,80.5,78.3,78.3,77.0,75.3,93,89,83,29.81,29.73,22,14,22,0.00
2013-5-31,85.3,81.4,78.8,78.9,77.5,76.3,93,88,80,29.86,29.76,22,13,22,0.00
2013-6-1,85.7,81.9,79.7,78.7,77.5,76.4,91,87,79,29.87,29.77,25,14,25,0.00
2013-6-2,83.9,80.0,73.8,79.2,75.5,71.6,95,86,72,30.00,29.84,22,8,22,0.41
2013-6-3,81.9,79.6,76.2,74.4,73.1,71.6,88,81,75,29.93,29.81,16,8,16,0.00
2013-6-4,84.2,79.6,75.3,74.3,72.9,71.7,92,80,71,29.86,29.79,14,7,14,0.00
2013-6-5,84.5,81.3,77.9,76.6,75.2,73.4,88,82,74,29.84,29.76,16,8,16,0.00
2013-6-6,85.5,81.8,78.5,78.2,76.2,74.4,91,83,72,29.82,29.72,14,7,14,0.00
2013-6-7,82.7,79.6,72.4,77.5,74.5,69.6,94,85,76,29.91,29.79,26,9,26,0.16
2013-6-8,85.9,81.3,77.3,77.7,75.4,72.0,89,83,75,29.88,29.76,20,8,20,0.01
2013-6-9,87.5,83.5,81.1,79.1,77.2,75.0,89,82,67,29.90,29.79,18,11,18,0.00
2013-6-10,85.1,82.5,80.6,78.5,76.6,73.4,87,82,77,29.94,29.88,18,9,18,0.00
2013-6-11,87.4,83.2,80.4,78.9,76.6,73.7,86,81,73,30.00,29.91,16,9,16,0.00
2013-6-12,87.2,82.9,77.9,79.1,77.4,74.0,94,84,73,30.00,29.93,18,11,18,0.50
2013-6-13,85.4,82.8,81.6,79.6,77.8,76.3,89,85,78,30.00,29.88,18,10,18,0.00
2013-6-14,86.7,83.0,81.4,80.2,78.3,76.6,89,86,80,29.94,29.85,20,10,20,0.01
2013-6-15,87.5,83.4,80.9,78.1,77.3,76.3,88,82,73,29.94,29.86,20,11,20,0.00
2013-6-16,86.8,83.4,80.8,80.0,77.9,76.3,88,84,79,29.97,29.89,24,12,24,0.00
2013-6-17,86.9,83.6,81.1,80.1,78.2,76.7,90,84,77,29.96,29.84,23,12,23,0.00
2013-6-18,87.1,83.1,79.4,78.8,77.5,75.9,90,83,75,29.94,29.85,20,10,20,0.00
2013-6-19,87.4,83.0,78.9,79.3,77.3,76.1,92,83,75,29.97,29.88,18,9,18,0.00
2013-6-20,87.2,83.0,79.6,79.4,78.0,76.7,91,85,75,30.02,29.91,20,9,20,0.00
2013-6-21,87.4,82.8,79.3,79.2,77.7,76.4,91,85,75,30.05,29.96,16,9,16,0.00
2013-6-22,87.7,82.8,79.3,78.9,77.6,76.4,93,85,73,30.01,29.90,16,8,16,0.00
2013-6-23,87.0,82.5,78.0,78.6,77.2,75.7,93,84,74,29.96,29.88,20,9,20,0.00
2013-6-24,87.1,82.8,79.6,79.5,77.7,76.3,91,85,76,30.00,29.90,20,10,20,0.00
2013-6-25,86.7,82.2,78.9,79.1,77.5,76.4,92,86,78,29.98,29.88,20,10,20,0.00
2013-6-26,86.7,82.1,78.9,79.9,78.0,76.5,94,87,78,29.95,29.88,20,10,20,0.00
2013-6-27,85.2,81.7,78.0,78.8,77.4,75.8,94,87,79,29.98,29.90,17,8,17,0.00
2013-6-28,86.4,82.1,77.9,78.9,77.5,76.4,95,87,75,29.96,29.81,17,7,17,0.00
2013-6-29,88.0,82.4,77.2,79.2,76.9,74.8,93,84,68,29.85,29.70,15,7,15,0.00
2013-6-30,85.0,79.8,73.4,76.5,73.2,70.4,93,81,65,29.90,29.73,29,8,29,0.94
2013-7-1,85.5,80.7,76.1,77.8,72.9,64.1,92,79,49,29.93,29.81,20,9,20,0.00
2013-7-2,86.9,81.4,78.0,75.7,71.3,63.2,91,73,48,30.00,29.91,13,5,13,0.00
2013-7-3,84.7,79.2,75.4,75.1,72.9,70.0,91,81,66,29.99,29.87,14,5,15,0.00
2013-7-4,84.0,80.4,75.3,75.9,74.6,72.8,92,83,74,29.95,29.86,14,5,14,0.00
2013-7-5,84.6,81.4,78.3,77.1,75.5,72.6,91,83,70,29.92,29.81,16,7,16,0.00
2013-7-6,84.8,81.7,78.7,78.7,77.2,74.9,94,86,78,29.87,29.80,18,8,18,0.00
2013-7-7,86.6,82.0,79.4,78.0,76.4,73.9,90,83,67,29.95,29.83,18,8,18,0.00
2013-7-8,85.9,82.7,78.9,79.4,77.7,73.4,90,85,79,30.07,29.94,20,10,20,0.00
2013-7-9,85.7,82.9,80.6,79.7,78.3,77.3,91,86,79,30.08,29.99,17,9,17,0.00
2013-7-10,86.5,83.5,80.6,78.9,77.7,76.0,89,83,75,30.05,29.92,16,8,16,0.00
2013-7-11,86.9,83.6,80.3,78.2,77.1,76.0,88,81,72,29.97,29.87,20,9,20,0.00
2013-7-12,87.4,83.1,79.5,77.6,76.2,74.7,89,80,69,29.92,29.86,17,8,17,0.00
2013-7-13,86.9,82.6,79.1,77.6,76.0,74.3,90,81,68,29.93,29.84,16,6,16,0.00
2013-7-14,86.8,82.9,78.7,77.9,76.7,75.1,89,82,73,29.90,29.81,21,9,21,0.00
2013-7-15,85.8,83.3,81.4,78.5,76.9,74.7,87,81,75,29.93,29.82,20,12,20,0.00
2013-7-16,84.9,80.9,76.0,78.0,75.7,72.5,93,84,75,30.01,29.90,22,13,22,0.69
2013-7-17,82.3,77.8,74.0,77.7,74.5,70.9,95,89,83,30.11,29.99,20,6,20,1.79
2013-7-18,83.2,79.7,73.9,77.1,75.2,71.4,93,86,78,30.08,29.94,21,7,21,0.27
2013-7-19,85.0,82.2,79.1,77.4,76.3,75.0,89,83,76,30.01,29.88,20,8,20,0.00
2013-7-20,85.6,82.9,80.8,78.3,76.7,75.2,87,82,76,29.94,29.83,16,9,16,0.00
2013-7-21,88.9,84.8,82.2,80.4,78.8,77.6,88,82,73,29.93,29.86,21,11,21,0.00
2013-7-22,88.4,84.9,82.4,80.5,79.2,78.3,88,83,74,29.97,29.88,22,13,22,0.00
2013-7-23,88.1,84.4,81.7,79.0,77.6,75.8,87,80,73,29.98,29.87,20,12,20,0.00
2013-7-24,88.1,83.9,81.4,79.1,77.6,76.1,88,81,73,29.95,29.84,20,11,20,0.00
2013-7-25,87.6,83.9,81.0,80.3,78.3,76.0,88,83,78,29.99,29.93,20,9,20,0.00
2013-7-26,87.7,84.0,81.2,80.5,78.4,76.6,89,84,78,30.00,29.88,20,11,20,0.00
2013-7-27,86.9,83.2,80.1,79.3,78.3,77.4,93,85,76,29.93,29.79,20,10,20,0.00
2013-7-28,87.3,83.1,79.8,79.6,78.6,77.6,93,86,76,29.91,29.83,21,10,21,0.00
2013-7-29,86.8,82.8,79.7,79.1,78.1,77.4,93,86,77,30.02,29.90,20,10,20,0.00
2013-7-30,86.8,82.3,79.2,79.8,78.2,76.9,94,88,79,30.07,29.98,20,10,20,0.00
2013-7-31,85.4,81.9,78.0,79.4,77.8,75.8,93,88,80,30.05,29.93,16,7,16,0.00
2013-8-1,86.2,82.3,78.7,78.8,77.6,76.2,95,86,74,29.99,29.90,17,6,17,0.00
2013-8-2,86.9,82.6,78.6,79.4,77.6,76.4,94,85,75,29.96,29.87,16,7,16,0.00
2013-8-3,87.5,83.5,79.8,80.1,78.7,75.7,93,86,75,29.99,29.91,17,8,17,0.00
2013-8-4,88.0,83.9,80.8,80.5,79.0,77.7,93,86,77,30.02,29.93,20,8,20,0.00
2013-8-5,87.8,83.6,80.3,80.3,78.8,77.9,94,86,76,30.00,29.89,20,9,20,0.00
2013-8-6,87.0,83.0,79.8,80.0,78.6,77.7,94,87,77,29.93,29.82,25,11,25,0.00
2013-8-7,86.9,82.4,79.1,79.6,78.1,76.9,93,87,78,29.90,29.80,20,10,20,0.00
2013-8-8,86.5,81.8,78.1,79.6,78.0,76.3,95,89,79,29.88,29.80,21,9,21,0.00
2013-8-9,87.5,81.7,77.9,79.9,77.4,74.5,95,87,67,29.92,29.84,17,6,17,0.00
2013-8-10,84.6,82.2,79.8,80.8,79.0,75.7,96,90,78,29.97,29.90,18,8,18,0.00
2013-8-11,84.9,81.8,77.6,80.1,77.5,74.7,94,87,74,30.00,29.94,18,6,18,0.20
2013-8-12,85.4,82.4,78.9,80.3,78.2,76.1,93,87,76,30.04,29.93,17,7,17,0.00
2013-8-13,88.2,83.8,80.8,79.9,79.0,77.7,92,86,74,30.01,29.87,20,9,20,0.00
2013-8-14,88.2,83.3,80.0,79.5,78.0,75.6,93,84,69,29.96,29.86,18,8,18,0.00
2013-8-15,86.5,82.5,78.7,78.9,77.7,75.8,92,86,76,29.95,29.87,20,8,20,0.00
2013-8-16,86.4,83.1,77.9,79.5,77.9,73.7,91,85,69,29.97,29.85,28,7,28,0.23
2013-8-17,84.0,81.1,78.1,77.1,75.6,72.7,92,83,75,29.96,29.87,21,10,21,0.24
2013-8-18,84.9,82.1,78.8,76.8,74.5,70.0,90,78,63,29.99,29.91,20,8,20,0.00
2013-8-19,85.0,82.5,80.2,76.5,75.0,73.2,84,78,73,29.99,29.88,18,9,18,0.00
2013-8-20,81.9,79.4,74.1,77.2,75.2,71.3,94,87,81,29.99,29.89,17,8,17,1.16
2013-8-21,86.0,83.4,81.4,79.2,77.9,76.5,89,84,77,30.00,29.94,16,9,16,0.00
2013-8-22,84.9,82.8,80.3,78.2,77.1,74.8,89,83,72,30.01,29.89,14,6,14,0.00
2013-8-23,85.8,83.5,81.2,78.4,77.2,75.8,86,82,74,29.96,29.85,20,8,20,0.00
2013-8-24,85.6,83.7,81.2,79.4,77.8,75.2,88,83,75,29.96,29.88,22,11,22,0.00
2013-8-25,85.7,83.3,80.9,79.0,77.8,76.7,91,84,77,30.00,29.93,20,10,20,0.00
2013-8-26,83.1,79.5,75.9,77.8,75.6,72.8,95,88,81,30.05,29.96,20,5,20,2.30
2013-8-27,86.9,83.9,80.2,79.0,77.6,73.5,89,82,73,30.04,29.95,25,10,25,0.03
2013-8-28,84.8,82.8,78.5,78.4,76.6,73.3,86,82,73,30.04,29.96,21,8,21,0.04
2013-8-29,87.1,84.0,81.3,77.9,76.6,74.3,85,79,67,30.04,29.94,14,6,14,0.00
2013-8-30,87.5,83.5,79.3,77.4,76.1,73.8,92,79,66,29.99,29.88,14,6,14,0.00
2013-8-31,88.4,83.7,79.2,77.4,76.1,74.0,88,78,66,29.92,29.81,17,7,17,0.00
2013-9-1,89.9,84.7,80.4,79.2,77.4,75.1,88,79,69,29.89,29.80,18,9,18,0.00
2013-9-2,89.1,85.0,82.0,79.8,77.9,75.5,87,80,70,29.92,29.83,16,8,16,0.00
2013-9-3,86.7,83.5,79.8,77.9,76.9,75.0,91,81,71,29.97,29.86,14,6,14,0.00
2013-9-4,86.1,83.1,79.2,78.3,76.8,75.5,91,81,72,30.00,29.90,17,8,17,0.00
2013-9-5,86.3,84.0,82.5,78.2,77.1,75.8,84,80,72,30.02,29.94,18,10,18,0.04
2013-9-6,85.2,83.3,80.8,78.2,76.6,73.7,88,80,75,30.02,29.91,18,7,18,0.36
2013-9-7,84.1,81.7,77.5,77.5,76.2,74.6,91,84,77,29.98,29.87,14,6,14,0.06
2013-9-8,85.1,81.3,78.3,77.5,75.5,73.1,90,83,77,29.92,29.84,17,7,17,0.11
2013-9-9,85.2,81.9,77.1,77.2,75.3,72.9,91,81,72,29.91,29.83,26,13,26,0.24
2013-9-10,85.6,81.1,75.8,78.7,75.9,71.7,93,84,74,29.98,29.88,23,10,23,1.24
2013-9-11,85.8,82.7,74.3,78.1,76.5,70.8,89,82,73,30.01,29.93,24,10,24,0.39
2013-9-12,85.2,83.2,79.0,77.7,75.9,72.4,86,79,71,29.97,29.86,21,11,21,0.06
2013-9-13,85.1,82.1,76.1,78.2,76.2,72.8,93,83,74,29.89,29.76,20,11,20,0.86
2013-9-14,85.4,83.2,78.2,77.9,76.7,72.6,88,81,74,29.85,29.77,22,13,22,0.16
2013-9-15,86.1,83.5,78.4,78.3,77.1,74.8,90,81,75,29.89,29.80,29,18,29,0.34
2013-9-16,85.2,82.0,76.9,78.8,77.1,74.3,95,85,79,29.93,29.84,26,16,26,1.92
2013-9-17,85.9,83.3,77.4,78.5,77.2,72.9,87,82,76,29.96,29.87,23,13,23,0.19
2013-9-18,85.1,82.6,78.7,78.4,76.9,73.7,89,83,77,29.94,29.84,20,12,20,0.25
2013-9-19,85.5,83.0,80.4,79.1,77.7,75.2,90,84,78,29.87,29.77,17,10,17,0.17
2013-9-20,88.2,83.8,80.0,80.2,78.7,76.5,90,85,76,29.80,29.67,20,9,20,0.06
2013-9-21,80.9,76.5,74.5,77.4,72.2,69.0,95,87,74,29.78,29.67,21,12,21,0.23
2013-9-22,82.3,77.6,73.2,71.0,67.5,61.4,86,72,50,29.81,29.70,16,9,16,0.00
2013-9-23,83.0,78.4,74.0,75.7,72.2,68.3,87,81,74,29.77,29.69,15,7,15,0.00
2013-9-24,89.7,81.4,74.2,77.6,73.4,69.7,91,78,52,29.85,29.76,15,7,15,0.00
2013-9-25,88.3,81.4,75.4,77.8,74.1,71.3,92,79,62,29.85,29.76,12,6,12,0.00
2013-9-26,88.4,82.7,80.3,77.5,76.0,74.2,89,80,67,29.84,29.77,17,7,17,0.00
2013-9-27,87.8,84.0,81.6,80.6,78.8,76.1,89,85,77,29.87,29.78,20,13,20,0.00
2013-9-28,89.0,84.5,82.2,80.3,78.6,76.2,89,83,74,29.92,29.82,20,12,20,0.00
2013-9-29,85.8,81.0,76.2,77.4,75.9,73.1,92,85,72,29.97,29.84,15,5,15,0.30
2013-9-30,83.2,79.7,76.1,78.5,76.1,73.9,94,89,81,29.89,29.76,14,6,14,0.01
2013-10-1,87.9,83.1,79.2,79.8,77.6,75.3,93,84,74,29.86,29.78,18,8,18,0.00
2013-10-2,87.5,83.4,80.7,78.7,76.6,74.8,84,80,72,29.91,29.82,15,9,15,0.01
2013-10-3,86.3,82.6,78.8,76.9,75.1,73.6,90,78,70,29.90,29.82,16,9,16,0.07
2013-10-4,87.0,83.0,81.1,77.5,75.7,73.5,84,79,72,29.88,29.82,17,11,17,0.00
2013-10-5,85.2,82.3,79.2,77.9,76.3,74.0,89,82,76,29.89,29.81,16,7,16,0.00
2013-10-6,81.6,70.4,59.9,77.5,59.3,50.0,93,70,41,30.07,29.88,23,10,23,0.44
2013-10-7,78.4,72.7,65.8,59.1,54.3,43.5,74,53,30,30.13,30.01,13,7,13,0.00
2013-10-8,78.3,73.0,65.4,65.3,61.2,57.3,86,67,54,30.05,29.96,10,4,10,0.00
2013-10-9,82.9,78.4,74.7,68.7,65.5,62.2,71,65,55,30.00,29.92,16,8,16,0.00
2013-10-10,84.9,80.2,76.4,73.0,70.4,66.4,82,72,63,29.98,29.87,20,10,20,0.00
2013-10-11,86.2,81.8,79.4,78.9,76.7,72.8,91,85,77,29.88,29.79,20,12,20,0.00
2013-10-12,86.3,82.7,80.6,80.4,78.7,77.5,93,88,80,29.97,29.85,20,9,20,0.00
2013-10-13,84.8,80.4,74.6,78.9,76.3,72.3,95,87,78,30.07,29.95,20,9,20,0.30
2013-10-14,85.6,81.6,79.3,76.4,74.1,72.0,87,78,69,30.02,29.89,18,11,18,0.00
2013-10-15,85.0,81.4,79.5,74.4,73.2,72.0,82,76,68,29.93,29.82,17,10,17,0.00
2013-10-16,79.9,75.0,66.6,74.2,69.5,62.5,87,83,80,30.00,29.85,14,8,14,0.00
2013-10-17,74.9,69.4,65.1,68.3,62.8,59.1,89,80,68,30.05,29.92,15,10,15,0.00
2013-10-18,79.4,77.2,74.7,76.5,73.4,68.0,94,88,79,29.94,29.77,20,10,20,0.30
2013-10-19,78.5,68.2,61.7,76.3,61.2,52.3,95,79,55,30.08,29.83,23,11,23,0.06
2013-10-20,75.5,68.8,61.1,67.0,60.3,52.3,85,75,65,30.04,29.88,13,6,13,0.00
2013-10-21,78.4,74.8,68.9,74.5,70.4,66.6,95,87,76,29.92,29.82,17,6,17,1.24
2013-10-22,76.6,70.0,63.9,69.4,61.9,52.4,96,77,51,30.08,29.92,18,9,18,0.01
2013-10-23,75.8,69.7,64.3,59.9,55.1,42.9,78,61,32,30.15,30.06,12,4,12,0.00
2013-10-24,76.0,72.2,66.4,67.2,63.1,56.8,90,73,61,30.18,30.08,15,5,15,0.00
2013-10-25,79.1,76.3,73.8,70.2,66.9,62.5,79,73,66,30.24,30.15,20,10,20,0.00
2013-10-26,80.5,77.3,75.3,71.5,69.3,66.7,86,76,69,30.16,30.03,18,12,18,0.00
2013-10-27,81.8,76.5,71.8,73.2,71.5,69.9,94,85,71,30.05,29.94,14,5,14,0.27
2013-10-28,81.0,77.7,75.3,75.2,73.0,71.5,90,86,79,30.04,29.95,21,11,21,0.00
2013-10-29,82.7,78.7,76.7,75.8,74.3,72.6,93,86,78,30.05,29.94,20,12,20,0.00
2013-10-30,83.8,79.9,77.7,78.5,76.8,75.5,94,91,83,29.96,29.80,20,11,20,0.00
2013-10-31,84.3,79.8,76.9,78.4,76.1,70.5,95,89,78,29.85,29.74,18,6,18,0.50
2013-11-1,81.2,78.0,75.3,73.1,70.2,59.3,91,77,58,29.98,29.79,16,7,16,0.00
2013-11-2,75.5,69.7,64.9,59.3,49.2,40.4,66,49,29,30.20,29.98,22,13,22,0.00
2013-11-3,74.0,69.4,62.1,58.5,54.5,45.2,72,59,49,30.16,29.99,14,8,14,0.00
2013-11-4,76.6,73.7,68.5,70.1,64.4,56.8,84,73,58,30.01,29.90,13,5,13,0.00
2013-11-5,80.4,76.9,73.8,74.5,72.4,68.9,92,86,79,29.96,29.87,17,8,17,0.00
2013-11-6,81.8,74.1,61.4,74.7,70.2,55.1,94,88,77,30.19,29.93,23,9,23,0.10
2013-11-7,65.0,60.8,56.3,54.7,46.6,39.9,80,60,42,30.36,30.19,21,12,24,0.01
2013-11-8,68.3,63.3,58.0,59.7,54.9,48.0,81,74,60,30.30,30.10,17,11,17,0.00
2013-11-9,75.1,69.7,63.7,66.0,62.5,58.2,90,78,63,30.12,30.06,15,4,15,0.00
2013-11-10,71.1,68.0,64.3,67.5,62.7,57.4,95,84,64,30.24,30.10,23,8,23,0.03
2013-11-11,71.1,68.9,66.1,66.3,63.2,58.3,87,82,76,30.20,30.10,15,8,15,0.00
2013-11-12,71.8,65.3,56.6,64.7,58.2,47.4,91,78,60,30.49,30.15,25,13,25,0.00
2013-11-13,56.4,51.2,46.3,49.6,40.7,34.1,80,68,48,30.56,30.35,24,9,24,0.00
2013-11-14,68.0,60.0,51.1,59.7,52.6,41.4,91,77,67,30.35,29.99,15,6,15,0.00
2013-11-15,71.4,65.8,59.0,67.4,62.3,57.0,95,89,79,29.99,29.85,10,4,10,0.00
2013-11-16,77.5,72.6,68.2,74.0,70.6,66.1,96,93,89,29.89,29.76,14,6,14,0.00
2013-11-17,79.5,73.4,70.2,74.2,71.4,69.3,98,94,82,29.89,29.76,13,5,13,0.00
2013-11-18,75.4,71.7,68.6,73.5,70.4,66.5,98,96,91,30.01,29.89,18,7,18,0.01
2013-11-19,70.4,69.3,67.7,67.3,65.2,63.4,92,87,83,30.02,29.93,22,15,22,0.00
2013-11-20,77.9,72.9,69.9,73.5,70.5,67.2,95,92,85,29.94,29.82,16,8,16,0.00
2013-11-21,80.3,74.8,72.0,75.8,72.7,70.5,97,93,85,30.00,29.88,15,8,15,0.00
2013-11-22,76.6,60.0,43.4,75.4,58.7,42.2,98,96,85,30.26,29.98,23,11,23,0.16
2013-11-23,47.3,45.1,42.7,45.0,43.0,40.9,96,92,88,30.36,30.25,25,16,25,0.00
2013-11-24,48.2,46.2,42.9,46.9,42.6,39.5,96,87,78,30.36,30.24,18,12,18,0.10
2013-11-25,46.9,44.1,42.0,44.7,41.7,39.1,94,91,85,30.24,29.98,24,14,24,0.21
2013-11-26,49.1,45.5,43.1,41.4,39.5,36.8,93,80,65,30.32,30.06,34,18,34,0.19
2013-11-27,50.2,46.3,42.9,40.7,34.9,30.9,87,65,50,30.44,30.32,20,9,20,0.00
2013-11-28,55.9,50.7,45.0,51.1,43.7,32.3,92,77,59,30.40,30.30,14,6,14,0.00
2013-11-29,64.2,57.7,49.8,59.9,54.6,48.1,95,90,82,30.39,30.30,24,11,24,0.00
2013-11-30,71.4,66.3,61.9,63.5,60.3,58.2,91,81,69,30.31,30.17,14,6,14,0.00
2013-12-1,75.3,66.2,59.0,64.5,61.5,56.8,94,85,69,30.18,29.96,11,3,11,0.00
2013-12-2,74.0,65.4,59.2,65.6,62.2,57.8,96,90,74,29.96,29.71,12,3,12,0.00
2013-12-3,73.2,66.6,62.2,67.0,63.9,60.7,96,91,81,29.74,29.62,14,6,14,0.01
2013-12-4,74.7,68.6,65.4,70.6,66.9,64.2,97,94,86,29.78,29.67,13,6,13,0.01
2013-12-5,72.3,62.1,44.4,70.4,60.5,41.7,98,94,87,29.96,29.76,20,8,20,0.00
2013-12-6,47.2,42.1,37.7,41.7,37.9,32.7,94,85,74,30.33,29.95,24,15,24,0.00
2013-12-7,37.7,36.2,35.4,33.9,32.4,31.1,90,86,82,30.39,30.24,17,10,17,0.00
2013-12-8,47.3,41.4,36.2,45.4,38.8,33.3,94,90,87,30.24,30.02,12,7,12,0.00
2013-12-9,52.3,48.7,43.3,51.2,47.5,41.2,97,96,93,30.24,29.98,17,10,17,0.03
2013-12-10,47.0,42.7,38.1,41.1,34.3,31.4,94,73,56,30.44,30.24,24,11,24,0.00
2013-12-11,52.9,48.8,45.3,46.1,41.7,36.1,80,76,69,30.45,30.27,13,6,13,0.00
2013-12-12,53.3,50.0,46.0,45.0,41.9,39.9,81,74,64,30.51,30.28,20,9,20,0.00
2013-12-13,63.8,55.3,48.9,59.4,50.6,42.1,94,84,77,30.28,29.84,12,5,12,0.00
2013-12-14,67.3,56.8,47.6,54.5,48.7,39.8,91,75,46,30.28,29.84,21,11,21,0.00
2013-12-15,54.7,47.8,42.9,45.4,37.7,34.0,89,69,46,30.41,30.27,18,6,18,0.00
2013-12-16,60.3,52.0,43.3,51.7,45.8,38.7,93,80,56,30.32,30.21,9,3,9,0.00
2013-12-17,62.4,56.7,48.5,56.5,52.6,46.7,95,87,73,30.30,30.21,12,4,12,0.01
2013-12-18,67.4,60.9,52.2,58.9,55.5,50.4,95,83,67,30.26,30.05,12,4,13,0.00
2013-12-19,69.2,65.0,62.5,64.6,61.9,58.3,96,90,84,30.05,29.81,16,8,16,0.00
2013-12-20,70.7,65.7,61.8,67.5,64.2,60.6,97,95,89,29.84,29.64,20,10,20,0.01
2013-12-21,75.1,66.4,61.0,68.9,62.9,57.4,97,89,67,29.77,29.55,20,8,20,0.00
2013-12-22,69.4,62.0,49.6,58.5,51.8,37.7,90,71,42,30.29,29.76,25,10,25,0.00
2013-12-23,54.9,48.2,42.1,43.2,36.3,31.9,74,64,44,30.49,30.29,18,8,18,0.00
2013-12-24,60.7,54.6,46.3,52.5,46.3,37.6,85,74,63,30.48,30.22,14,6,14,0.00
2013-12-25,68.0,60.1,55.6,59.2,56.0,52.9,95,87,72,30.27,30.17,14,6,14,0.00
2013-12-26,57.7,54.9,52.0,56.3,51.0,47.6,95,87,75,30.33,30.24,20,11,20,0.11
2013-12-27,54.8,53.1,51.2,50.5,49.5,48.0,93,88,80,30.36,30.27,15,8,15,0.09
2013-12-28,57.0,52.8,50.6,49.6,44.2,37.2,88,73,48,30.27,30.02,10,4,10,0.00
2013-12-29,60.4,55.6,48.6,55.8,50.4,45.7,91,83,64,30.08,29.97,12,3,12,0.00
2013-12-30,59.5,45.2,41.8,55.0,40.0,37.3,87,82,76,30.36,30.06,21,12,21,0.10
2013-12-31,47.8,44.7,43.2,44.3,39.7,37.4,88,83,76,30.41,30.23,13,6,13,0.07
2014-1-1,55.5,50.9,47.5,54.4,48.7,44.4,96,92,88,30.23,29.98,10,5,10,0.00
2014-1-2,56.7,51.1,44.8,55.6,41.2,30.8,96,70,50,30.42,30.02,25,12,25,0.00